Date String (YYYY-MM-DD hh:mm:ss) UTC,Instrument flags,Ambient pressure (hPa),Sample flow (lpm),Bypass flow (lpm),Sample temperature (°C),Ambient temperature (°C),ASC tube jacket temperature (°C),LED temperature (°C),Box temperature (°C),Sample RH (%),Span deviation,Mass concentration (μg/m³),Mass concentration (μg/m³),Mass concentration (μg/m³)
DateTimeUTC,F1_M11,P_M11,Q1_M11,Q2_M11,T1_M11,T2_M11,T3_M11,T4_M11,T5_M11,U1_M11,ZSPAN_M11,X0_M11,X2_M11,X1_M11
2021-11-12 01:00:00,,0824.3,5.01,0.00,25.8,24.8,00.0,34.8,27.4,12.6,0000.0,0002.01,0000.48,0000.25
2021-11-12 01:01:00,,0824.5,5.00,0.00,25.7,24.8,00.0,34.8,27.4,12.7,0000.0,0002.01,0000.47,0000.25
2021-11-12 01:02:00,,0824.4,5.01,0.00,25.7,24.8,00.0,34.8,27.5,12.7,0000.0,0001.98,0000.45,0000.26
2021-11-12 01:03:00,,0824.5,5.01,0.00,25.7,24.8,00.0,34.8,27.5,12.7,0000.0,0002.28,0000.47,0000.27
2021-11-12 01:04:00,,0824.6,4.99,0.00,25.7,24.8,00.0,34.8,27.5,12.7,0000.0,0002.91,0000.53,0000.28
2021-11-12 01:05:00,,0824.5,5.00,0.00,25.8,24.8,00.0,34.8,27.5,12.6,0000.0,0003.08,0000.56,0000.28
2021-11-12 01:06:00,,0824.6,5.00,0.00,25.7,24.8,00.0,34.8,27.5,12.5,0000.0,0003.66,0000.59,0000.29
2021-11-12 01:07:00,,0824.5,5.00,0.00,25.7,24.8,00.0,34.8,27.4,12.5,0000.0,0003.45,0000.60,0000.29
2021-11-12 01:08:00,,0824.8,5.00,0.00,25.7,24.8,00.0,34.8,27.4,12.6,0000.0,0002.82,0000.61,0000.30
2021-11-12 01:09:00,,0824.8,5.00,0.00,25.7,24.8,00.0,34.8,27.4,12.7,0000.0,0002.87,0000.60,0000.29
2021-11-12 01:10:00,,0824.7,5.00,0.00,25.7,24.8,00.0,34.8,27.5,12.7,0000.0,0002.84,0000.60,0000.29
2021-11-12 01:11:00,,0824.5,5.00,0.00,25.8,24.9,00.0,34.8,27.6,12.7,0000.0,0002.78,0000.60,0000.29
2021-11-12 01:12:00,,0824.6,4.99,0.00,25.8,24.9,00.0,34.8,27.6,12.6,0000.0,0002.80,0000.60,0000.29
2021-11-12 01:13:00,,0824.5,4.99,0.00,25.8,24.9,00.0,34.8,27.6,12.5,0000.0,0002.79,0000.60,0000.28
2021-11-12 01:14:00,,0824.8,4.99,0.00,25.8,24.9,00.0,34.8,27.5,12.6,0000.0,0002.46,0000.58,0000.28
2021-11-12 01:15:00,,0824.6,5.01,0.00,25.8,24.9,00.0,34.8,27.6,12.7,0000.0,0001.82,0000.53,0000.27
2021-11-12 01:16:00,,0824.7,4.99,0.00,25.8,24.9,00.0,34.8,27.6,12.7,0000.0,0001.40,0000.49,0000.27
2021-11-12 01:17:00,,0824.9,5.01,0.00,25.8,24.9,00.0,34.8,27.6,12.7,0000.0,0000.90,0000.45,0000.27
2021-11-12 01:18:00,,0824.5,5.00,0.00,25.8,25.0,00.0,34.8,27.6,12.7,0000.0,0000.84,0000.42,0000.26
2021-11-12 01:19:00,,0824.6,5.01,0.00,25.8,25.0,00.0,34.8,27.6,12.7,0000.0,0000.77,0000.39,0000.26
2021-11-12 01:20:00,,0824.7,5.01,0.00,25.8,25.0,00.0,34.8,27.6,12.7,0000.0,0000.71,0000.40,0000.26
2021-11-12 01:21:00,,0824.5,5.00,0.00,25.8,25.0,00.0,34.8,27.6,12.7,0000.0,0000.68,0000.38,0000.25
2021-11-12 01:22:00,,0824.6,5.00,0.00,25.8,25.0,00.0,34.8,27.5,12.6,0000.0,0000.85,0000.36,0000.24
2021-11-12 01:23:00,,0824.7,5.00,0.00,25.8,24.9,00.0,34.8,27.5,12.7,0000.0,0000.90,0000.38,0000.24
2021-11-12 01:24:00,,0824.6,4.99,0.00,25.8,24.9,00.0,34.8,27.5,12.7,0000.0,0000.96,0000.38,0000.23
2021-11-12 01:25:00,,0824.5,5.00,0.00,25.8,24.9,00.0,34.8,27.5,12.7,0000.0,0000.96,0000.38,0000.24
2021-11-12 01:26:00,,0824.5,5.00,0.00,25.8,24.9,00.0,34.8,27.5,12.7,0000.0,0000.95,0000.38,0000.23
2021-11-12 01:27:00,,0824.7,4.99,0.00,25.8,24.9,00.0,34.8,27.5,12.8,0000.0,0000.96,0000.39,0000.23
2021-11-12 01:28:00,,0824.6,5.00,0.00,25.8,24.9,00.0,34.8,27.5,12.8,0000.0,0000.97,0000.40,0000.22
2021-11-12 01:29:00,,0824.6,5.00,0.00,25.8,24.9,00.0,34.8,27.5,12.8,0000.0,0001.00,0000.41,0000.22
2021-11-12 01:30:00,,0824.7,5.01,0.00,25.8,24.9,00.0,34.8,27.6,12.8,0000.0,0001.02,0000.41,0000.21
2021-11-12 01:31:00,,0824.6,4.99,0.00,25.8,24.9,00.0,34.8,27.6,12.9,0000.0,0001.07,0000.44,0000.21
2021-11-12 01:32:00,,0824.8,5.00,0.00,25.8,24.9,00.0,34.8,27.6,13.0,0000.0,0001.57,0000.45,0000.22
2021-11-12 01:33:00,,0824.7,5.00,0.00,25.8,24.9,00.0,34.8,27.5,13.1,0000.0,0001.48,0000.48,0000.23
2021-11-12 01:34:00,,0824.7,5.00,0.00,25.8,24.9,00.0,34.8,27.5,13.0,0000.0,0001.43,0000.48,0000.24
2021-11-12 01:35:00,,0824.6,5.00,0.00,25.8,24.9,00.0,34.8,27.6,13.0,0000.0,0001.56,0000.51,0000.26
2021-11-12 01:36:00,,0824.7,5.01,0.00,25.8,24.9,00.0,34.8,27.6,13.0,0000.0,0001.80,0000.55,0000.27
2021-11-12 01:37:00,,0824.6,4.98,0.00,25.8,24.9,00.0,34.8,27.6,13.0,0000.0,0001.99,0000.59,0000.27
2021-11-12 01:38:00,,0824.7,5.00,0.00,25.8,24.9,00.0,34.8,27.6,13.2,0000.0,0002.27,0000.65,0000.29
2021-11-12 01:39:00,,0824.6,5.00,0.00,25.8,24.9,00.0,34.8,27.5,13.1,0000.0,0002.39,0000.67,0000.31
2021-11-12 01:40:00,,0824.6,4.99,0.00,25.8,24.9,00.0,34.8,27.5,13.2,0000.0,0002.50,0000.71,0000.32
2021-11-12 01:41:00,,0824.7,5.01,0.00,25.8,24.9,00.0,34.8,27.6,13.1,0000.0,0002.60,0000.74,0000.33
2021-11-12 01:42:00,,0824.7,5.00,0.00,25.8,24.9,00.0,34.8,27.6,13.1,0000.0,0002.69,0000.74,0000.33
2021-11-12 01:43:00,,0824.5,4.99,0.00,25.8,24.9,00.0,34.8,27.6,13.1,0000.0,0002.13,0000.73,0000.33
2021-11-12 01:44:00,,0824.7,5.01,0.00,25.8,24.9,00.0,34.8,27.6,13.0,0000.0,0002.22,0000.75,0000.33
2021-11-12 01:45:00,,0824.6,5.01,0.00,25.8,24.9,00.0,34.8,27.6,13.0,0000.0,0002.25,0000.72,0000.32
2021-11-12 01:46:00,,0824.6,5.00,0.00,25.8,24.9,00.0,34.8,27.6,13.1,0000.0,0002.04,0000.69,0000.31
2021-11-12 01:47:00,,0824.6,5.00,0.00,25.8,24.9,00.0,34.8,27.5,13.1,0000.0,0001.90,0000.66,0000.32
2021-11-12 01:48:00,,0824.7,5.00,0.00,25.8,24.9,00.0,34.8,27.6,13.0,0000.0,0002.62,0000.65,0000.32
2021-11-12 01:49:00,,0824.7,5.00,0.00,25.8,24.9,00.0,34.8,27.6,13.0,0000.0,0002.68,0000.63,0000.31
2021-11-12 01:50:00,,0824.6,5.02,0.00,25.8,24.9,00.0,34.8,27.5,13.0,0000.0,0002.90,0000.65,0000.31
2021-11-12 01:51:00,,0824.8,5.00,0.00,25.8,24.8,00.0,34.8,27.5,12.8,0000.0,0002.92,0000.63,0000.31
2021-11-12 01:52:00,,0824.8,4.99,0.00,25.8,24.9,00.0,34.8,27.6,12.8,0000.0,0002.85,0000.62,0000.31
2021-11-12 01:53:00,,0824.9,5.01,0.00,25.8,24.9,00.0,34.8,27.6,12.7,0000.0,0002.70,0000.58,0000.30
2021-11-12 01:54:00,,0824.9,5.00,0.00,25.8,24.9,00.0,34.8,27.6,12.8,0000.0,0003.85,0000.58,0000.29
2021-11-12 01:55:00,,0825.0,4.99,0.00,25.8,24.8,00.0,34.8,27.6,13.0,0000.0,0004.04,0000.55,0000.29
2021-11-12 01:56:00,,0824.9,5.00,0.00,25.8,24.9,00.0,34.8,27.6,13.1,0000.0,0004.38,0000.59,0000.30
2021-11-12 01:57:00,,0824.8,5.00,0.00,25.8,24.9,00.0,34.8,27.6,13.1,0000.0,0006.05,0000.60,0000.29
2021-11-12 01:58:00,,0824.8,5.00,0.00,25.8,24.9,00.0,34.8,27.5,13.2,0000.0,0006.24,0000.63,0000.29
2021-11-12 01:59:00,,0824.9,4.99,0.00,25.8,24.8,00.0,34.8,27.5,13.2,0000.0,0006.72,0000.62,0000.29
